Regional Weather Roundup
Issued by NWS

Home | Current Version | Previous Version | Graphics & Text | Print | Product List | Glossary On
Versions: 1 2 3 4 5 6 7 8 9 10 11 12 13 14 15 16 17 18 19 20 21 22 23 24 25 26 27 28 29 30 31 32 33 34 35 36 37 38 39 40 41 42 43 44 45 46 47 48 49 50
212
ASUS43 KOAX 270510
RWRNE

WEATHER ROUNDUP FOR NEBRASKA
NATIONAL WEATHER SERVICE OMAHA NE
1100 PM CST SUN FEB 26 2017

NOTES: SATELLITE DATA IS BEING USED TO AUGMENT CLOUD COVER ABOVE
       12000 FEET.
       "FAIR" INDICATES FEW OR NO CLOUDS BELOW 12,000 FEET WITH NO
       SIGNIFICANT WEATHER AND/OR OBSTRUCTIONS TO VISIBILITY.

  * THESE STATIONS DO NOT REPORT WEATHER SUCH AS RAIN...SNOW OR FOG.

NEZ001>004-019>022-054>056-270600-
NEBRASKA PANHANDLE

CITY           SKY/WX    TMP DP  RH WIND       PRES   REMARKS
SCOTTSBLUFF    CLEAR     13   4  67 E6        29.81F WCI   4
ALLIANCE       CLEAR      1  -3  83 S7        29.80F WCI -12
CHADRON        CLEAR      9   4  80 SW3       29.81F
KIMBALL        CLEAR     16  10  80 SE9       29.80S WCI   4
SIDNEY         CLEAR     15   8  73 S5        29.82F WCI   8
$$

NEZ057>060-069>072-079>082-270600-
SOUTHWEST NEBRASKA

CITY           SKY/WX    TMP DP  RH WIND       PRES   REMARKS
NORTH PLATTE   CLEAR     18  12  77 NE3       29.91S
IMPERIAL       CLEAR     21  12  68 SE6       29.89S WCI  13
LEXINGTON      CLEAR     21  17  82 CALM      29.94S
MCCOOK         CLEAR     21  10  62 NE3       29.92S
OGALLALA       CLEAR     13   9  81 CALM      29.88F
$$

NEZ005>010-023>029-035>040-094-270600-
NORTH CENTRAL NEBRASKA

CITY           SKY/WX    TMP DP  RH WIND       PRES   REMARKS
VALENTINE      CLEAR     13   6  74 SW3       29.87F
AINSWORTH      CLEAR     16  10  79 SW8       29.88S WCI   5
BROKEN BOW     CLEAR     16  11  80 CALM      29.91F
O`NEILL        CLEAR     19  14  82 SW8       29.91F WCI   8
ORD            CLEAR     22  14  71 CALM      29.92S
THEDFORD       CLEAR     15  11  82 CALM      29.89F
$$

NEZ041-046>049-061>064-073>077-083>087-270600-
SOUTH CENTRAL NEBRASKA

CITY           SKY/WX    TMP DP  RH WIND       PRES   REMARKS
GRAND ISLAND   CLEAR     29  19  66 S7        29.96F WCI  22
AURORA         CLEAR     27  18  70 CALM      29.96F
HASTINGS       CLEAR     27  15  61 CALM      29.97F
HEBRON         CLEAR     24  18  79 CALM      30.00S
HOLDREGE       CLEAR     25  13  59 CALM      29.94S
KEARNEY *      CLEAR     28  16  59 CALM      29.95F
YORK           CLEAR     28  25  86 S6        29.98S WCI  22
$$

NEZ011>018-030>034-042>045-270600-
NORTHEAST NEBRASKA

CITY           SKY/WX    TMP DP  RH WIND       PRES   REMARKS
NORFOLK        CLEAR     28  20  71 S10       29.94F WCI  19
ALBION         CLEAR     26  18  70 CALM      29.95S
BLAIR          CLEAR     30  24  77 S7        29.99S WCI  23
FREMONT        CLEAR     26  23  85 CALM      29.99S
TEKAMAH        CLEAR     23  20  88 S6        30.00R WCI  16
WAYNE          CLEAR     24  19  80 S8        29.96S WCI  16
$$

NEZ050>053-065>068-078-088>093-270600-
SOUTHEAST NEBRASKA

CITY           SKY/WX    TMP DP  RH WIND       PRES   REMARKS
LINCOLN        CLEAR     28  22  78 S3        30.01S
OMAHA EPPLEY   CLEAR     28  20  71 SE6       30.01S WCI  22
BEATRICE       CLEAR     28  20  71 CALM      30.00F
FALLS CITY     CLEAR     30  21  69 NW5       30.02S WCI  25
NEBRASKA CITY  CLEAR     35  17  46 SE3       30.01S
PLATTSMOUTH    CLEAR     30  19  63 SE6       30.01S WCI  24
$$

NEZ044-045-051>053-067-270600-
OMAHA AREA

CITY           SKY/WX    TMP DP  RH WIND       PRES   REMARKS
OMAHA EPPLEY   CLEAR     28  20  71 SE6       30.01S WCI  22
BLAIR          CLEAR     30  24  77 S7        29.99S WCI  23
FREMONT        CLEAR     26  23  85 CALM      29.99S
MILLARD        CLEAR     30  26  85 CALM      30.01S
OFFUTT AFB     CLEAR     23  20  89 CALM      30.01S
PLATTSMOUTH    CLEAR     30  19  63 SE6       30.01S WCI  24
WAHOO          FAIR      28  22  81 S3        30.00R
$$




USA.gov is the U.S. government's official web portal to all federal, state and local government web resources and services.